Time,TemperatureF,DewpointF,PressureIn,WindDirection,WindDirectionDegrees,WindSpeedMPH,WindSpeedGustMPH,Humidity,HourlyPrecipIn,Conditions,Clouds,dailyrainin,SoftwareType,DateUTC
2013-03-21 00:00:00,70.0,-99.9,29.90,NNW,340,9.0,9.0,-999,-99.99,,,-99.99,,2013-03-21 04:00:00,
2013-03-21 00:23:00,70.0,-99.9,29.90,NNW,340,9.0,9.0,-999,-99.99,,,-99.99,,2013-03-21 04:23:00,
2013-03-21 00:33:00,70.0,-99.9,29.90,NNW,340,9.0,9.0,-999,-99.99,,,-99.99,,2013-03-21 04:33:00,
2013-03-21 00:43:00,70.0,-99.9,29.90,NNW,340,9.0,9.0,-999,-99.99,,,-99.99,,2013-03-21 04:43:00,
2013-03-21 00:53:00,70.0,-99.9,29.90,NNW,340,9.0,9.0,-999,-99.99,,,-99.99,,2013-03-21 04:53:00,
2013-03-21 01:00:00,70.0,-99.9,29.88,WNW,300,7.0,8.0,-999,-99.99,,,-99.99,,2013-03-21 05:00:00,
2013-03-21 01:22:00,70.0,-99.9,29.88,WNW,300,7.0,8.0,-999,-99.99,,,-99.99,,2013-03-21 05:22:00,
2013-03-21 01:33:00,70.0,-99.9,29.88,WNW,300,7.0,8.0,-999,-99.99,,,-99.99,,2013-03-21 05:33:00,
2013-03-21 01:44:00,70.0,-99.9,29.88,WNW,300,7.0,8.0,-999,-99.99,,,-99.99,,2013-03-21 05:44:00,
2013-03-21 01:52:00,70.0,-99.9,29.88,WNW,300,7.0,8.0,-999,-99.99,,,-99.99,,2013-03-21 05:52:00,
2013-03-21 02:00:00,70.0,-99.9,29.88,West,260,8.0,10.0,-999,-99.99,,,-99.99,,2013-03-21 06:00:00,
2013-03-21 02:23:00,70.0,-99.9,29.88,West,260,8.0,10.0,-999,-99.99,,,-99.99,,2013-03-21 06:23:00,
2013-03-21 02:32:00,70.0,-99.9,29.88,West,260,8.0,10.0,-999,-99.99,,,-99.99,,2013-03-21 06:32:00,
2013-03-21 02:42:00,70.0,-99.9,29.88,West,260,8.0,10.0,-999,-99.99,,,-99.99,,2013-03-21 06:42:00,
2013-03-21 02:52:00,70.0,-99.9,29.88,West,260,8.0,10.0,-999,-99.99,,,-99.99,,2013-03-21 06:52:00,
2013-03-21 03:00:00,71.0,-99.9,29.87,West,260,9.0,10.0,-999,-99.99,,,-99.99,,2013-03-21 07:00:00,
2013-03-21 03:22:00,71.0,-99.9,29.87,West,260,9.0,10.0,-999,-99.99,,,-99.99,,2013-03-21 07:22:00,
2013-03-21 03:33:00,71.0,-99.9,29.87,West,260,9.0,10.0,-999,-99.99,,,-99.99,,2013-03-21 07:33:00,
2013-03-21 03:43:00,71.0,-99.9,29.87,West,260,9.0,10.0,-999,-99.99,,,-99.99,,2013-03-21 07:43:00,
2013-03-21 03:53:00,71.0,-99.9,29.87,West,260,9.0,10.0,-999,-99.99,,,-99.99,,2013-03-21 07:53:00,
2013-03-21 04:00:00,71.0,-99.9,29.86,West,270,9.0,10.0,-999,-99.99,,,-99.99,,2013-03-21 08:00:00,
2013-03-21 04:23:00,71.0,-99.9,29.86,West,270,9.0,10.0,-999,-99.99,,,-99.99,,2013-03-21 08:23:00,
2013-03-21 04:33:00,71.0,-99.9,29.86,West,270,9.0,10.0,-999,-99.99,,,-99.99,,2013-03-21 08:33:00,
2013-03-21 04:43:00,71.0,-99.9,29.86,West,270,9.0,10.0,-999,-99.99,,,-99.99,,2013-03-21 08:43:00,
2013-03-21 04:52:00,71.0,-99.9,29.86,West,270,9.0,10.0,-999,-99.99,,,-99.99,,2013-03-21 08:52:00,
2013-03-21 05:00:00,70.0,-99.9,29.86,NW,320,8.0,11.0,-999,-99.99,,,-99.99,,2013-03-21 09:00:00,
2013-03-21 05:22:00,70.0,-99.9,29.86,NW,320,8.0,11.0,-999,-99.99,,,-99.99,,2013-03-21 09:22:00,
2013-03-21 05:33:00,70.0,-99.9,29.86,NW,320,8.0,11.0,-999,-99.99,,,-99.99,,2013-03-21 09:33:00,
2013-03-21 05:43:00,70.0,-99.9,29.86,NW,320,8.0,11.0,-999,-99.99,,,-99.99,,2013-03-21 09:43:00,
2013-03-21 05:53:00,70.0,-99.9,29.86,NW,320,8.0,11.0,-999,-99.99,,,-99.99,,2013-03-21 09:53:00,
2013-03-21 06:00:00,70.0,-99.9,29.87,North,350,14.0,15.0,-999,-99.99,,,-99.99,,2013-03-21 10:00:00,
2013-03-21 06:23:00,70.0,-99.9,29.87,North,350,14.0,15.0,-999,-99.99,,,-99.99,,2013-03-21 10:23:00,
2013-03-21 06:34:00,70.0,-99.9,29.87,North,350,14.0,15.0,-999,-99.99,,,-99.99,,2013-03-21 10:34:00,
2013-03-21 06:43:00,70.0,-99.9,29.87,North,350,14.0,15.0,-999,-99.99,,,-99.99,,2013-03-21 10:43:00,
2013-03-21 06:53:00,70.0,-99.9,29.87,North,350,14.0,15.0,-999,-99.99,,,-99.99,,2013-03-21 10:53:00,
2013-03-21 07:00:00,69.0,-99.9,29.89,North,360,16.0,17.0,-999,-99.99,,,-99.99,,2013-03-21 11:00:00,
2013-03-21 07:23:00,69.0,-99.9,29.89,North,360,16.0,17.0,-999,-99.99,,,-99.99,,2013-03-21 11:23:00,
2013-03-21 07:33:00,69.0,-99.9,29.89,North,360,16.0,17.0,-999,-99.99,,,-99.99,,2013-03-21 11:33:00,
2013-03-21 07:43:00,69.0,-99.9,29.89,North,360,16.0,17.0,-999,-99.99,,,-99.99,,2013-03-21 11:43:00,
2013-03-21 07:53:00,69.0,-99.9,29.89,North,360,16.0,17.0,-999,-99.99,,,-99.99,,2013-03-21 11:53:00,
2013-03-21 08:00:00,67.0,-99.9,29.92,North,10,16.0,18.0,-999,-99.99,,,-99.99,,2013-03-21 12:00:00,
2013-03-21 08:22:00,67.0,-99.9,29.92,North,10,16.0,18.0,-999,-99.99,,,-99.99,,2013-03-21 12:22:00,
2013-03-21 08:33:00,67.0,-99.9,29.92,North,10,16.0,18.0,-999,-99.99,,,-99.99,,2013-03-21 12:33:00,
2013-03-21 08:44:00,67.0,-99.9,29.92,North,10,16.0,18.0,-999,-99.99,,,-99.99,,2013-03-21 12:44:00,
2013-03-21 08:53:00,67.0,-99.9,29.92,North,10,16.0,18.0,-999,-99.99,,,-99.99,,2013-03-21 12:53:00,
2013-03-21 09:00:00,68.0,-99.9,29.94,North,360,9.0,11.0,-999,-99.99,,,-99.99,,2013-03-21 13:00:00,
2013-03-21 09:22:00,68.0,-99.9,29.94,North,360,9.0,11.0,-999,-99.99,,,-99.99,,2013-03-21 13:22:00,
2013-03-21 09:33:00,68.0,-99.9,29.94,North,360,9.0,11.0,-999,-99.99,,,-99.99,,2013-03-21 13:33:00,
2013-03-21 09:43:00,68.0,-99.9,29.94,North,360,9.0,11.0,-999,-99.99,,,-99.99,,2013-03-21 13:43:00,
2013-03-21 09:53:00,68.0,-99.9,29.94,North,360,9.0,11.0,-999,-99.99,,,-99.99,,2013-03-21 13:53:00,
2013-03-21 10:00:00,67.0,-99.9,29.96,North,10,13.0,15.0,-999,-99.99,,,-99.99,,2013-03-21 14:00:00,
2013-03-21 10:22:00,67.0,-99.9,29.96,North,10,13.0,15.0,-999,-99.99,,,-99.99,,2013-03-21 14:22:00,
2013-03-21 10:33:00,67.0,-99.9,29.96,North,10,13.0,15.0,-999,-99.99,,,-99.99,,2013-03-21 14:33:00,
2013-03-21 10:43:00,67.0,-99.9,29.96,North,10,13.0,15.0,-999,-99.99,,,-99.99,,2013-03-21 14:43:00,
2013-03-21 10:52:00,67.0,-99.9,29.96,North,10,13.0,15.0,-999,-99.99,,,-99.99,,2013-03-21 14:52:00,
2013-03-21 11:00:00,67.0,-99.9,29.96,NNE,30,10.0,11.0,-999,-99.99,,,-99.99,,2013-03-21 15:00:00,
2013-03-21 11:22:00,67.0,-99.9,29.96,NNE,30,10.0,11.0,-999,-99.99,,,-99.99,,2013-03-21 15:22:00,
2013-03-21 11:33:00,67.0,-99.9,29.96,NNE,30,10.0,11.0,-999,-99.99,,,-99.99,,2013-03-21 15:33:00,
2013-03-21 11:43:00,67.0,-99.9,29.96,NNE,30,10.0,11.0,-999,-99.99,,,-99.99,,2013-03-21 15:43:00,
2013-03-21 11:53:00,67.0,-99.9,29.96,NNE,30,10.0,11.0,-999,-99.99,,,-99.99,,2013-03-21 15:53:00,
2013-03-21 12:00:00,67.0,-99.9,29.96,NNE,30,9.0,10.0,-999,-99.99,,,-99.99,,2013-03-21 16:00:00,
2013-03-21 12:23:00,67.0,-99.9,29.96,NNE,30,9.0,10.0,-999,-99.99,,,-99.99,,2013-03-21 16:23:00,
2013-03-21 12:33:00,67.0,-99.9,29.96,NNE,30,9.0,10.0,-999,-99.99,,,-99.99,,2013-03-21 16:33:00,
2013-03-21 12:43:00,67.0,-99.9,29.96,NNE,30,9.0,10.0,-999,-99.99,,,-99.99,,2013-03-21 16:43:00,
2013-03-21 12:53:00,67.0,-99.9,29.96,NNE,30,9.0,10.0,-999,-99.99,,,-99.99,,2013-03-21 16:53:00,
2013-03-21 13:00:00,68.0,-99.9,29.94,NNE,20,7.0,9.0,-999,-99.99,,,-99.99,,2013-03-21 17:00:00,
2013-03-21 13:23:00,68.0,-99.9,29.94,NNE,20,7.0,9.0,-999,-99.99,,,-99.99,,2013-03-21 17:23:00,
2013-03-21 13:33:00,68.0,-99.9,29.94,NNE,20,7.0,9.0,-999,-99.99,,,-99.99,,2013-03-21 17:33:00,
2013-03-21 13:43:00,68.0,-99.9,29.94,NNE,20,7.0,9.0,-999,-99.99,,,-99.99,,2013-03-21 17:43:00,
2013-03-21 13:53:00,68.0,-99.9,29.94,NNE,20,7.0,9.0,-999,-99.99,,,-99.99,,2013-03-21 17:53:00,
2013-03-21 14:00:00,69.0,-99.9,29.91,North,10,5.0,6.0,-999,-99.99,,,-99.99,,2013-03-21 18:00:00,
2013-03-21 14:23:00,69.0,-99.9,29.91,North,10,5.0,6.0,-999,-99.99,,,-99.99,,2013-03-21 18:23:00,
2013-03-21 14:33:00,69.0,-99.9,29.91,North,10,5.0,6.0,-999,-99.99,,,-99.99,,2013-03-21 18:33:00,
2013-03-21 14:43:00,69.0,-99.9,29.91,North,10,5.0,6.0,-999,-99.99,,,-99.99,,2013-03-21 18:43:00,
2013-03-21 14:52:00,69.0,-99.9,29.91,North,10,5.0,6.0,-999,-99.99,,,-99.99,,2013-03-21 18:52:00,
2013-03-21 15:00:00,70.0,-99.9,29.90,ENE,60,3.0,5.0,-999,-99.99,,,-99.99,,2013-03-21 19:00:00,
2013-03-21 15:23:00,70.0,-99.9,29.90,ENE,60,3.0,5.0,-999,-99.99,,,-99.99,,2013-03-21 19:23:00,
2013-03-21 15:32:00,70.0,-99.9,29.90,ENE,60,3.0,5.0,-999,-99.99,,,-99.99,,2013-03-21 19:32:00,
2013-03-21 15:43:00,70.0,-99.9,29.90,ENE,60,3.0,5.0,-999,-99.99,,,-99.99,,2013-03-21 19:43:00,
2013-03-21 15:53:00,70.0,-99.9,29.90,ENE,60,3.0,5.0,-999,-99.99,,,-99.99,,2013-03-21 19:53:00,
2013-03-21 16:00:00,71.0,-99.9,29.89,ESE,110,1.0,2.0,-999,-99.99,,,-99.99,,2013-03-21 20:00:00,
2013-03-21 16:23:00,71.0,-99.9,29.89,ESE,110,1.0,2.0,-999,-99.99,,,-99.99,,2013-03-21 20:23:00,
2013-03-21 16:33:00,71.0,-99.9,29.89,ESE,110,1.0,2.0,-999,-99.99,,,-99.99,,2013-03-21 20:33:00,
2013-03-21 16:43:00,71.0,-99.9,29.89,ESE,110,1.0,2.0,-999,-99.99,,,-99.99,,2013-03-21 20:43:00,
2013-03-21 16:53:00,71.0,-99.9,29.89,ESE,110,1.0,2.0,-999,-99.99,,,-99.99,,2013-03-21 20:53:00,
2013-03-21 17:00:00,72.0,-99.9,29.90,NW,310,5.0,6.0,-999,-99.99,,,-99.99,,2013-03-21 21:00:00,
2013-03-21 17:23:00,72.0,-99.9,29.90,NW,310,5.0,6.0,-999,-99.99,,,-99.99,,2013-03-21 21:23:00,
2013-03-21 17:33:00,72.0,-99.9,29.90,NW,310,5.0,6.0,-999,-99.99,,,-99.99,,2013-03-21 21:33:00,
2013-03-21 17:43:00,72.0,-99.9,29.90,NW,310,5.0,6.0,-999,-99.99,,,-99.99,,2013-03-21 21:43:00,
2013-03-21 17:53:00,72.0,-99.9,29.90,NW,310,5.0,6.0,-999,-99.99,,,-99.99,,2013-03-21 21:53:00,
2013-03-21 18:00:00,70.0,-99.9,29.91,WNW,300,7.0,9.0,-999,-99.99,,,-99.99,,2013-03-21 22:00:00,
2013-03-21 18:23:00,70.0,-99.9,29.91,WNW,300,7.0,9.0,-999,-99.99,,,-99.99,,2013-03-21 22:23:00,
2013-03-21 18:34:00,70.0,-99.9,29.91,WNW,300,7.0,9.0,-999,-99.99,,,-99.99,,2013-03-21 22:34:00,
2013-03-21 18:43:00,70.0,-99.9,29.91,WNW,300,7.0,9.0,-999,-99.99,,,-99.99,,2013-03-21 22:43:00,
2013-03-21 18:53:00,70.0,-99.9,29.91,WNW,300,7.0,9.0,-999,-99.99,,,-99.99,,2013-03-21 22:53:00,
2013-03-21 19:00:00,71.0,-99.9,29.92,NW,320,7.0,9.0,-999,-99.99,,,-99.99,,2013-03-21 23:00:00,
2013-03-21 19:22:00,71.0,-99.9,29.92,NW,320,7.0,9.0,-999,-99.99,,,-99.99,,2013-03-21 23:22:00,
2013-03-21 19:33:00,71.0,-99.9,29.92,NW,320,7.0,9.0,-999,-99.99,,,-99.99,,2013-03-21 23:33:00,
2013-03-21 19:43:00,71.0,-99.9,29.92,NW,320,7.0,9.0,-999,-99.99,,,-99.99,,2013-03-21 23:43:00,
2013-03-21 19:53:00,71.0,-99.9,29.92,NW,320,7.0,9.0,-999,-99.99,,,-99.99,,2013-03-21 23:53:00,
2013-03-21 20:00:00,71.0,-99.9,29.93,NW,320,7.0,8.0,-999,-99.99,,,-99.99,,2013-03-22 00:00:00,
2013-03-21 20:22:00,71.0,-99.9,29.93,NW,320,7.0,8.0,-999,-99.99,,,-99.99,,2013-03-22 00:22:00,
2013-03-21 20:32:00,71.0,-99.9,29.93,NW,320,7.0,8.0,-999,-99.99,,,-99.99,,2013-03-22 00:32:00,
2013-03-21 20:42:00,71.0,-99.9,29.93,NW,320,7.0,8.0,-999,-99.99,,,-99.99,,2013-03-22 00:42:00,
2013-03-21 20:53:00,71.0,-99.9,29.93,NW,320,7.0,8.0,-999,-99.99,,,-99.99,,2013-03-22 00:53:00,
2013-03-21 21:00:00,71.0,-99.9,29.94,NNW,340,1.0,2.0,-999,-99.99,,,-99.99,,2013-03-22 01:00:00,
2013-03-21 21:22:00,71.0,-99.9,29.94,NNW,340,1.0,2.0,-999,-99.99,,,-99.99,,2013-03-22 01:22:00,
2013-03-21 21:33:00,71.0,-99.9,29.94,NNW,340,1.0,2.0,-999,-99.99,,,-99.99,,2013-03-22 01:33:00,
2013-03-21 21:43:00,71.0,-99.9,29.94,NNW,340,1.0,2.0,-999,-99.99,,,-99.99,,2013-03-22 01:43:00,
2013-03-21 21:53:00,71.0,-99.9,29.94,NNW,340,1.0,2.0,-999,-99.99,,,-99.99,,2013-03-22 01:53:00,
2013-03-21 22:00:00,71.0,-99.9,29.96,North,0,0.0,0.0,-999,-99.99,,,-99.99,,2013-03-22 02:00:00,
2013-03-21 22:23:00,71.0,-99.9,29.96,North,0,0.0,0.0,-999,-99.99,,,-99.99,,2013-03-22 02:23:00,
2013-03-21 22:32:00,71.0,-99.9,29.96,North,0,0.0,0.0,-999,-99.99,,,-99.99,,2013-03-22 02:32:00,
2013-03-21 22:43:00,71.0,-99.9,29.96,North,0,0.0,0.0,-999,-99.99,,,-99.99,,2013-03-22 02:43:00,
2013-03-21 22:53:00,71.0,-99.9,29.96,North,0,0.0,0.0,-999,-99.99,,,-99.99,,2013-03-22 02:53:00,
2013-03-21 23:00:00,71.0,-99.9,29.96,SSE,160,6.0,7.0,-999,-99.99,,,-99.99,,2013-03-22 03:00:00,
2013-03-21 23:22:00,71.0,-99.9,29.96,SSE,160,6.0,7.0,-999,-99.99,,,-99.99,,2013-03-22 03:22:00,
2013-03-21 23:33:00,71.0,-99.9,29.96,SSE,160,6.0,7.0,-999,-99.99,,,-99.99,,2013-03-22 03:33:00,
2013-03-21 23:43:00,71.0,-99.9,29.96,SSE,160,6.0,7.0,-999,-99.99,,,-99.99,,2013-03-22 03:43:00,
2013-03-21 23:53:00,71.0,-99.9,29.96,SSE,160,6.0,7.0,-999,-99.99,,,-99.99,,2013-03-22 03:53:00,